Location: Geyikbay?r?
(36.8756°N, 30.4583°E)
Time: 07:34:03
(UTC+00:00)

Cosmos 2297 - Pass Details

Date: 05 August 2024
Orbit: 837 x 856 km, 71.0° (Epoch: 10 September)

Event Time Altitude Azimuth Distance (km) Brightness Sun altitude
Rises 17:53:06 0° 209° (SSW) 3,406 6.9 -10.3°
Reaches altitude 10° 17:55:34 10° 213° (SSW) 2,472 6.2 -10.7°
Maximum altitude 18:01:11 63° 294° (WNW) 946 4.3 -11.7°
Drops below altitude 10° 18:06:50 10° 15° (NNE) 2,474 6.4 -12.6°
Sets 18:09:19 0° 19° (NNE) 3,410 7.0 -13.0°
